{"data":{"norad_id":50195,"intl_designator":"2021-125AR","name":"STARLINK-3266","alt_names":[],"object_type":"PAYLOAD","status":"ACTIVE","operator":null,"country":"US","launch_date":"2021-12-18","launch_site_code":"AFWTR","launch_vehicle":null,"mission":null,"orbit_class":"UNKNOWN","rcs_meters":null,"size_class":null,"mass_kg":null,"dimensions":null,"purposes":["comms"],"wikipedia_slug":null,"has_3d_model":false,"image_url":null,"decayed_at":null,"tle_current":{"epoch":"2026-05-25T00:22:52.891680Z","epoch_age_seconds":80521,"freshness":"FRESH","line1":"1 50195U 21125AR  26145.01588995  .00001008  00000+0  81408-4 0  9997","line2":"2 50195  53.2155 256.4789 0001255  92.5468 267.5668 15.08837820248254","mean_motion":15.0883782,"eccentricity":0.0001255,"inclination_deg":53.2155,"raan_deg":256.4789,"arg_perigee_deg":92.5468,"mean_anomaly_deg":267.5668,"bstar":8.1408e-5,"rev_number":24825,"period_min":95.437692567913,"perigee_km":538.88185753493,"apogee_km":540.61824718508,"semimajor_km":6917.88705236,"source":"CELESTRAK","updated_at":"2026-05-25T13:38:16.871732Z"}}}